Roanoke, VA

8:36 AM EDT on May 28, 2017 (GMT -0400)
Roanoke Regional-Woodrum

Weather History for KROA - April, 2013

Change the Weather History Date:

Wednesday, April 10, 2013

  Actual Average Record
Temperature  
Mean Temperature 78 °F 55 °F  
Max Temperature 90 °F 66 °F 90 °F (2013)
Min Temperature 65 °F 44 °F 20 °F (1985)
Degree Days  
Heating Degree Days 0 10  
Month to date heating degree days 123 117  
Since 1 July heating degree days 3764 3874  
Cooling Degree Days 13 1  
Month to date cooling degree days 20 2  
Year to date cooling degree days 20 7  
Growing Degree Days 27 (Base 50)    
Moisture  
Dew Point 51 °F    
Average Humidity 41    
Maximum Humidity 63    
Minimum Humidity 19    
Precipitation  
Precipitation 0.00 in 0.12 in 1.21 in (2003)
Month to date precipitation 0.70 1.13  
Year to date precipitation 13.39 10.40  
Snow  
Snow 0.00 in - - ()
Month to date snowfall 1.0  
Since 1 July snowfall 18.3  
Snow Depth 0.00 in    
Sea Level Pressure  
Sea Level Pressure 29.98 in    
Wind  
Wind Speed 8 mph (WSW)    
Max Wind Speed 18 mph    
Max Gust Speed 25 mph    
Visibility 10 miles    
Events      
T = Trace of Precipitation, MM = Missing Value Source: NWS Daily Summary

Daily Weather History Graph

Daily Weather History Graph

Search for Another Location

Airport or City:

Trip Planner

Search our weather history database for the weather conditions in past years. The results will help you decide how hot, cold, wet, or windy it might be!

Date:

Astronomy

Apr. 10, 2013 Rise Set
Actual Time 6:52 AM EDT 7:50 PM EDT
Civil Twilight 6:25 AM EDT 8:17 PM EDT
Nautical Twilight 5:53 AM EDT 8:49 PM EDT
Astronomical Twilight 5:21 AM EDT 9:22 PM EDT
Moon 6:47 AM EDT (4/10) 8:23 PM EDT (4/10)
Length of Visible Light 13h 52m
Length of Day
12h 58m
New Moon, 0% of the Moon is Illuminated
Apr 10
New Moon
Apr 18
First Quarter
Apr 25
Full
May 2
Last Quarter
May 9
New

Hourly Weather History & Observations

Time (EDT) Temp. Heat Index Dew Point Humidity Pressure Visibility Wind Dir Wind Speed Gust Speed Precip Events Conditions
12:54 AM 70.0 °F - 52.0 °F 53% 30.02 in 10.0 mi West 8.1 mph - N/A   Clear
1:54 AM 70.0 °F - 52.0 °F 53% 30.02 in 10.0 mi WSW 9.2 mph - N/A   Clear
2:54 AM 70.0 °F - 52.0 °F 53% 30.01 in 10.0 mi WSW 6.9 mph - N/A   Clear
3:54 AM 70.0 °F - 52.0 °F 53% 30.02 in 10.0 mi WSW 10.4 mph - N/A   Clear
4:54 AM 66.0 °F - 52.0 °F 60% 30.03 in 10.0 mi NW 5.8 mph - N/A   Clear
5:54 AM 64.9 °F - 52.0 °F 63% 30.03 in 10.0 mi NW 6.9 mph - N/A   Clear
6:54 AM 66.0 °F - 52.0 °F 60% 30.04 in 10.0 mi Calm Calm - N/A   Clear
7:54 AM 69.1 °F - 52.0 °F 54% 30.05 in 10.0 mi NW 3.5 mph - N/A   Clear
8:54 AM 72.0 °F - 54.0 °F 53% 30.06 in 10.0 mi Calm Calm - N/A   Clear
9:54 AM 75.9 °F - 52.0 °F 43% 30.06 in 10.0 mi WSW 10.4 mph - N/A   Clear
10:54 AM 79.0 °F - 52.0 °F 39% 30.05 in 10.0 mi WSW 8.1 mph - N/A   Clear
11:54 AM 82.0 °F 81.2 °F 53.1 °F 37% 30.04 in 10.0 mi SSW 13.8 mph 19.6 mph N/A   Clear
12:54 PM 84.0 °F 82.5 °F 53.1 °F 34% 30.01 in 10.0 mi SSW 12.7 mph 16.1 mph N/A   Clear
1:54 PM 87.1 °F - 50.0 °F 28% 29.98 in 10.0 mi WSW 10.4 mph 21.9 mph N/A   Clear
2:54 PM 87.8 °F - 48.2 °F 25% 30.00 in 10.0 mi WSW 10.4 mph - N/A   Clear
3:54 PM 90.0 °F - 42.1 °F 19% 29.92 in 10.0 mi WSW 17.3 mph 25.3 mph N/A   Partly Cloudy
4:54 PM 90.0 °F - 41.0 °F 18% 29.90 in 10.0 mi WSW 16.1 mph 21.9 mph N/A   Partly Cloudy
5:54 PM 89.1 °F - 44.1 °F 21% 29.88 in 10.0 mi WSW 10.4 mph 19.6 mph N/A   Clear
6:54 PM 87.1 °F - 51.1 °F 29% 29.88 in 10.0 mi SSW 6.9 mph - N/A   Clear
7:54 PM 82.9 °F - 52.0 °F 34% 29.88 in 10.0 mi South 8.1 mph - N/A   Clear
8:54 PM 81.0 °F - 52.0 °F 36% 29.90 in 10.0 mi SSW 10.4 mph - N/A   Clear
9:54 PM 80.1 °F - 52.0 °F 38% 29.91 in 10.0 mi SW 9.2 mph - N/A   Clear
10:54 PM 77.0 °F - 52.0 °F 42% 29.91 in 10.0 mi SSW 8.1 mph - N/A   Clear
11:54 PM 75.9 °F - 52.0 °F 43% 29.91 in 10.0 mi South 3.5 mph - N/A   Clear